| time (UTC) | temp F | wind direction | speed MPH | gust MPH | rain 1hr in | rain 24hr in | rain mn in | humidity % | barometer mb |
| 20260902031531 | 63 | 276 | 0.0 | 7.0 | 0.00 | 0.00 | 0.00 | 57 | 1018.7 |
| 20260902030030 | 64 | 256 | 2.0 | 9.0 | 0.00 | 0.00 | 0.00 | 57 | 1018.4 |
| 20260902024529 | 64 | 260 | 0.0 | 1.0 | 0.00 | 0.00 | 0.00 | 57 | 1018.3 |
| 20260902023028 | 64 | 268 | 0.0 | 4.0 | 0.00 | 0.00 | 0.00 | 56 | 1018.1 |
| 20260902021528 | 65 | 228 | 0.0 | 4.0 | 0.00 | 0.00 | 0.00 | 56 | 1017.9 |
| 20260902020027 | 65 | 281 | 0.0 | 9.0 | 0.00 | 0.00 | 0.00 | 55 | 1017.7 |
| 20260902014533 | 66 | 284 | 0.0 | 4.0 | 0.00 | 0.00 | 0.00 | 54 | 1017.6 |
| 20260902013025 | 67 | 252 | 0.0 | 3.0 | 0.00 | 0.00 | 0.00 | 54 | 1017.7 |
| 20260902011525 | 67 | 265 | 0.0 | 6.0 | 0.00 | 0.00 | 0.00 | 54 | 1017.7 |
| 20260902010039 | 67 | 266 | 1.0 | 4.0 | 0.00 | 0.00 | 0.00 | 53 | 1017.5 |
| 20260902004526 | 67 | 265 | 0.0 | 4.0 | 0.00 | 0.00 | 0.00 | 53 | 1017.5 |
| 20260902003023 | 67 | 266 | 0.0 | 4.0 | 0.00 | 0.00 | 0.00 | 52 | 1017.4 |
| 20260902001522 | 68 | 252 | 0.0 | 1.0 | 0.00 | 0.00 | 0.00 | 51 | 1017.3 |
| 20260902000025 | 68 | 241 | 1.0 | 9.0 | 0.00 | 0.00 | 0.00 | 51 | 1017.2 |
| 20260901234521 | 68 | 269 | 1.0 | 4.0 | 0.00 | 0.00 | 0.00 | 50 | 1017.0 |
| 20260901233021 | 69 | 273 | 2.0 | 6.0 | 0.00 | 0.00 | 0.00 | 49 | 1017.1 |
| 20260901231520 | 70 | 299 | 2.0 | 8.0 | 0.00 | 0.00 | 0.00 | 48 | 1017.0 |
| 20260901230034 | 70 | 304 | 3.0 | 7.0 | 0.00 | 0.00 | 0.00 | 48 | 1016.7 |
| 20260901224520 | 70 | 237 | 2.0 | 6.0 | 0.00 | 0.00 | 0.00 | 48 | 1016.8 |
| 20260901223018 | 70 | 276 | 0.0 | 7.0 | 0.00 | 0.00 | 0.00 | 48 | 1016.8 |
| 20260901221517 | 71 | 262 | 3.0 | 10.0 | 0.00 | 0.00 | 0.00 | 47 | 1016.7 |
| 20260901220015 | 71 | 271 | 0.0 | 9.0 | 0.00 | 0.00 | 0.00 | 48 | 1016.9 |
| 20260901214515 | 71 | 280 | 3.0 | 8.0 | 0.00 | 0.00 | 0.00 | 48 | 1016.8 |
| 20260901213045 | 72 | 257 | 5.0 | 9.0 | 0.00 | 0.00 | 0.00 | 45 | 1016.8 |
| 20260901211531 | 74 | 256 | 3.0 | 7.0 | 0.00 | 0.00 | 0.00 | 44 | 1016.5 |
| 20260901210019 | 72 | 250 | 0.0 | 3.0 | 0.00 | 0.00 | 0.00 | 46 | 1016.5 |
| 20260901204512 | 72 | 259 | 0.0 | 2.0 | 0.00 | 0.00 | 0.00 | 47 | 1016.5 |
| 20260901203024 | 72 | 16 | 0.0 | 6.0 | 0.00 | 0.00 | 0.00 | 47 | 1016.5 |
| 20260901201512 | 73 | 278 | 0.0 | 3.0 | 0.00 | 0.00 | 0.00 | 45 | 1016.5 |
| 20260901200014 | 73 | 155 | 0.0 | 4.0 | 0.00 | 0.00 | 0.00 | 45 | 1016.7 |
| 20260901194509 | 73 | 274 | 0.0 | 3.0 | 0.00 | 0.00 | 0.00 | 44 | 1016.9 |
| 20260901193008 | 72 | 297 | 1.0 | 7.0 | 0.00 | 0.00 | 0.00 | 45 | 1017.2 |
| 20260901191504 | 71 | 326 | 0.0 | 3.0 | 0.00 | 0.00 | 0.00 | 47 | 1017.3 |
| 20260901190003 | 70 | 306 | 1.0 | 6.0 | 0.00 | 0.00 | 0.00 | 47 | 1017.4 |
| 20260901184503 | 70 | 324 | 0.0 | 4.0 | 0.00 | 0.00 | 0.00 | 47 | 1017.6 |
| 20260901183058 | 69 | 158 | 0.0 | 6.0 | 0.00 | 0.00 | 0.00 | 49 | 1017.8 |
| 20260901181556 | 68 | 272 | 0.0 | 4.0 | 0.00 | 0.00 | 0.00 | 51 | 1017.9 |
| 20260901180054 | 67 | 28 | 1.0 | 6.0 | 0.00 | 0.00 | 0.00 | 51 | 1018.1 |
| 20260901174551 | 67 | 326 | 0.0 | 2.0 | 0.00 | 0.00 | 0.00 | 53 | 1017.9 |
| 20260901173047 | 65 | 65 | 0.0 | 5.0 | 0.00 | 0.00 | 0.00 | 57 | 1018.1 |
| 20260901171546 | 65 | 68 | 1.0 | 4.0 | 0.00 | 0.00 | 0.00 | 57 | 1018.2 |
| 20260901170048 | 64 | 124 | 0.0 | 3.0 | 0.00 | 0.00 | 0.00 | 61 | 1018.3 |
| 20260901164541 | 63 | 205 | 0.0 | 0.0 | 0.00 | 0.00 | 0.00 | 64 | 1018.3 |
| 20260901163038 | 61 | 271 | 0.0 | 0.0 | 0.00 | 0.00 | 0.00 | 67 | 1018.4 |
| 20260901161539 | 60 | 252 | 0.0 | 0.0 | 0.00 | 0.00 | 0.00 | 70 | 1018.5 |
| 20260901160035 | 59 | 252 | 0.0 | 0.0 | 0.00 | 0.00 | 0.00 | 73 | 1018.6 |
| 20260901154530 | 57 | 266 | 0.0 | 1.0 | 0.00 | 0.00 | 0.00 | 76 | 1018.5 |
| 20260901153029 | 55 | 120 | 0.0 | 1.0 | 0.00 | 0.00 | 0.00 | 78 | 1018.5 |
| 20260901151529 | 54 | 116 | 0.0 | 0.0 | 0.00 | 0.00 | 0.00 | 81 | 1018.5 |
| 20260901150027 | 53 | 116 | 0.0 | 1.0 | 0.00 | 0.00 | 0.00 | 82 | 1018.5 |
| 20260901144525 | 52 | 116 | 0.0 | 0.0 | 0.00 | 0.00 | 0.00 | 85 | 1018.5 |
| 20260901143023 | 50 | 116 | 0.0 | 0.0 | 0.00 | 0.00 | 0.00 | 88 | 1018.2 |
| 20260901141530 | 49 | 116 | 0.0 | 0.0 | 0.00 | 0.00 | 0.00 | 88 | 1018.0 |
| 20260901140022 | 48 | 116 | 0.0 | 0.0 | 0.00 | 0.00 | 0.00 | 87 | 1017.9 |
| 20260901134518 | 48 | 116 | 0.0 | 0.0 | 0.00 | 0.00 | 0.00 | 86 | 1017.8 |
| 20260901133016 | 49 | 116 | 0.0 | 0.0 | 0.00 | 0.00 | 0.00 | 86 | 1017.7 |
| 20260901131522 | 49 | 116 | 0.0 | 0.0 | 0.00 | 0.00 | 0.00 | 85 | 1017.6 |
| 20260901130013 | 49 | 116 | 0.0 | 0.0 | 0.00 | 0.00 | 0.00 | 84 | 1017.4 |
| 20260901124512 | 49 | 116 | 0.0 | 0.0 | 0.00 | 0.00 | 0.00 | 83 | 1017.4 |
| 20260901123015 | 50 | 116 | 0.0 | 0.0 | 0.00 | 0.00 | 0.00 | 82 | 1017.5 |
| 20260901121509 | 51 | 117 | 0.0 | 0.0 | 0.00 | 0.00 | 0.00 | 81 | 1017.5 |
| 20260901120006 | 51 | 82 | 0.0 | 3.0 | 0.00 | 0.00 | 0.00 | 81 | 1017.5 |
| 20260901114506 | 52 | 99 | 0.0 | 0.0 | 0.00 | 0.00 | 0.00 | 80 | 1017.6 |
| 20260901113002 | 53 | 99 | 0.0 | 0.0 | 0.00 | 0.00 | 0.00 | 80 | 1017.5 |
| 20260901111600 | 53 | 99 | 0.0 | 0.0 | 0.00 | 0.00 | 0.00 | 79 | 1017.3 |
| 20260901110107 | 53 | 99 | 0.0 | 0.0 | 0.00 | 0.00 | 0.00 | 78 | 1017.3 |
| 20260901104557 | 53 | 117 | 0.0 | 0.0 | 0.00 | 0.00 | 0.00 | 76 | 1017.2 |
| 20260901103055 | 53 | 120 | 0.0 | 0.0 | 0.00 | 0.00 | 0.00 | 73 | 1017.0 |
| 20260901101553 | 52 | 93 | 0.0 | 1.0 | 0.00 | 0.00 | 0.00 | 72 | 1016.8 |
| 20260901100052 | 52 | 110 | 0.0 | 0.0 | 0.00 | 0.00 | 0.00 | 72 | 1016.7 |
| 20260901094550 | 52 | 110 | 0.0 | 1.0 | 0.00 | 0.00 | 0.00 | 72 | 1016.8 |
| 20260901093050 | 53 | 101 | 0.0 | 3.0 | 0.00 | 0.00 | 0.00 | 71 | 1016.7 |
| 20260901091548 | 53 | 96 | 0.0 | 0.0 | 0.00 | 0.00 | 0.00 | 69 | 1016.8 |
| 20260901090044 | 53 | 96 | 0.0 | 0.0 | 0.00 | 0.00 | 0.00 | 69 | 1016.6 |
| 20260901084546 | 53 | 96 | 0.0 | 0.0 | 0.00 | 0.00 | 0.00 | 68 | 1016.6 |
| 20260901083041 | 54 | 96 | 0.0 | 0.0 | 0.00 | 0.00 | 0.00 | 66 | 1016.6 |
| 20260901081544 | 56 | 103 | 0.0 | 3.0 | 0.00 | 0.00 | 0.00 | 64 | 1016.5 |
| 20260901080036 | 55 | 95 | 0.0 | 0.0 | 0.00 | 0.00 | 0.00 | 63 | 1016.7 |
| 20260901074538 | 57 | 95 | 0.0 | 0.0 | 0.00 | 0.00 | 0.00 | 61 | 1016.7 |
| 20260901073033 | 58 | 95 | 0.0 | 0.0 | 0.00 | 0.00 | 0.00 | 61 | 1016.6 |
| 20260901071528 | 58 | 129 | 0.0 | 0.0 | 0.00 | 0.00 | 0.00 | 58 | 1016.6 |
| 20260901070029 | 58 | 80 | 0.0 | 0.0 | 0.00 | 0.00 | 0.00 | 59 | 1016.5 |
| 20260901064537 | 59 | 112 | 0.0 | 2.0 | 0.00 | 0.00 | 0.00 | 56 | 1016.5 |
| 20260901063030 | 59 | 124 | 0.0 | 0.0 | 0.00 | 0.00 | 0.00 | 55 | 1016.5 |
| 20260901061525 | 61 | 124 | 0.0 | 0.0 | 0.00 | 0.00 | 0.00 | 53 | 1016.5 |
| 20260901060026 | 62 | 124 | 0.0 | 1.0 | 0.00 | 0.00 | 0.00 | 51 | 1016.5 |
| 20260901054523 | 63 | 96 | 0.0 | 1.0 | 0.00 | 0.00 | 0.00 | 49 | 1016.5 |
| 20260901053023 | 64 | 111 | 0.0 | 1.0 | 0.00 | 0.00 | 0.00 | 47 | 1016.6 |
| 20260901051522 | 65 | 105 | 0.0 | 0.0 | 0.00 | 0.00 | 0.00 | 46 | 1016.5 |
| 20260901050023 | 66 | 156 | 0.0 | 3.0 | 0.00 | 0.00 | 0.00 | 45 | 1016.4 |
| 20260901044520 | 67 | 141 | 0.0 | 1.0 | 0.00 | 0.00 | 0.00 | 43 | 1016.3 |
| 20260901043023 | 67 | 149 | 0.0 | 3.0 | 0.00 | 0.00 | 0.00 | 43 | 1016.1 |
| 20260901041520 | 68 | 72 | 0.0 | 0.0 | 0.00 | 0.00 | 0.00 | 41 | 1015.8 |
| 20260901040019 | 69 | 342 | 0.0 | 2.0 | 0.00 | 0.00 | 0.00 | 40 | 1015.3 |
| 20260901034522 | 69 | 166 | 0.0 | 1.0 | 0.00 | 0.00 | 0.00 | 38 | 1015.0 |
| 20260901033018 | 70 | 276 | 0.0 | 1.0 | 0.00 | 0.00 | 0.00 | 35 | 1014.7 |